Onweer van: 25-07-2021 11:00 tot: 20:00 waarschuwing voor: Onweer niveau: Geel info button


waarschuwing voor Onweer Meer informatie blitzortung!


Regen radar Meer informatie rain snow radar


Bezoek onze andere website:

Template documentation
and downloads

And another site



15 daagse weersverwachting Trollhättan (SE)

  • Overzicht
  • Per uur
  • 15 dagen
  • Extra
  • Vergelijk
  • Kaarten
  • Dagkaart
  • Meer »
  • Info
  • Statistieken
  • Directe link
    Temp 6h Neerslag Wind  
 04:52     21:45    Daglengte: 16:53 Vandaag
08:00
20°
 
2
14:00
27°
 
4
20:00
25°
 
2
 04:54     21:43    Daglengte: 16:49 Morgen
02:00
18°
 
2
08:00
19°
 
3
14:00
28°
 
4
20:00
23°
3.4 mm
2
 04:56     21:41    Daglengte: 16:45 Dinsdag 27 Jul
02:00
20°
14.8 mm
3
08:00
20°
5.1 mm
3
14:00
22°
26.6 mm
4
warningclass
20:00
21°
26.8 mm
4
 04:58     21:39    Daglengte: 16:41 Woensdag 28 Jul
02:00
16°
 
3
Locatie info
Region: Västra Götalands län
Latitude: 58.2831°N
Longitude: 12.2873°E
49 masl
Postcode: 461 34
Temp/Neerslag /Baro Onweer/Dauwpunt
    Temp Baro 1h Neerslag Dauwpunt Wind UV Bewolking  
 04:52     21:45    Daglengte: 16:53 Vandaag
06:00
17°
1015.6 hPa   16.4°
1
Windvlaag: 3.3 m/s
7%
07:00
18°
1015.8 hPa   16.6°
1
Windvlaag: 2.3 m/s
8%
08:00
20°
1015.8 hPa   15.6°
2
Windvlaag: 2.7 m/s
1%
09:00
21°
1015.9 hPa   13.8°
2
Windvlaag: 3.4 m/s
8%
10:00
23°
1016.0 hPa   12.3°
3
Windvlaag: 3.1 m/s
39%
11:00
24°
1015.9 hPa   10.3°
3
Windvlaag: 2.4 m/s
43%
12:00
25°
1015.7 hPa   9.8°
4
Windvlaag: 3.2 m/s
48%
13:00
26°
1015.5 hPa   9.7°
4
Windvlaag: 4 m/s
52%
14:00
27°
Voelt als: 26.6°
1015.2 hPa   9.9°
4
Windvlaag: 5.2 m/s
48%
15:00
28°
Voelt als: 26.9°
1015.1 hPa   10.0°
4
Windvlaag: 5.5 m/s
54%
16:00
28°
Voelt als: 27.0°
1014.9 hPa   9.8°
3
Windvlaag: 4.7 m/s
51%
17:00
27°
Voelt als: 26.8°
1014.6 hPa   10.0°
3
Windvlaag: 4.2 m/s
56%
18:00
27°
Voelt als: 26.7°
1014.2 hPa   10.2°
3
Windvlaag: 4.1 m/s
64%
19:00
27°
Voelt als: 26.3°
1014.2 hPa   10.1°
3
Windvlaag: 5 m/s
70%
20:00
25°
1014.3 hPa   11.6°
2
Windvlaag: 5.8 m/s
79%
21:00
23°
1014.5 hPa   14.1°
2
Windvlaag: 5.8 m/s
77%
22:00
22°
1014.7 hPa   15.1°
1
Windvlaag: 4.5 m/s
53%
23:00
21°
1015.1 hPa   15.0°
2
Windvlaag: 2.3 m/s
14%
 04:54     21:43    Daglengte: 16:49 Morgen
00:00
20°
1015.4 hPa   14.4°
2
Windvlaag: 4.2 m/s
9%
01:00
19°
1015.5 hPa   14.4°
2
Windvlaag: 4.7 m/s
31%
02:00
18°
1015.3 hPa   14.7°
2
Windvlaag: 4.2 m/s
31%
03:00
17°
1015.5 hPa   15.0°
2
Windvlaag: 3.6 m/s
27%
04:00
16°
1015.4 hPa   15.3°
2
Windvlaag: 3.2 m/s
39%
05:00
16°
1015.3 hPa   15.3°
2
Windvlaag: 3.6 m/s
44%
06:00
16°
1015.2 hPa   15.4°
2
Windvlaag: 2.5 m/s
36%
07:00
17°
1015.1 hPa   15.7°
3
Windvlaag: 2 m/s
38%
08:00
19°
1015.0 hPa   15.6°
3
Windvlaag: 2.8 m/s
42%
09:00
20°
1015.0 hPa
13%
16.2°
3
Windvlaag: 2.6 m/s
45%
10:00
22°
1014.9 hPa
13%
16.8°
4
Windvlaag: 2.7 m/s
71%
11:00
23°
1014.7 hPa
13%
16.4°
4
Windvlaag: 0.8 m/s
57%
12:00
25°
1014.5 hPa
13%
16.9°
4
Windvlaag: -1.3 m/s
74%
13:00
27°
1013.8 hPa
14%
17.1°
4
Windvlaag: 0.1 m/s
45%
14:00
28°
1013.2 hPa
33%
17.2°
4
Windvlaag: 4.2 m/s
57%
15:00
26°
1012.8 hPa 0.7 mm
82%
19.7°
4
Windvlaag: 6.3 m/s
43%
16:00
25°
1012.9 hPa 1.0 mm
78%
20.8°
3
Windvlaag: 5.1 m/s
70%
17:00
25°
1012.4 hPa 1.7 mm
82%
19.0°
3
Windvlaag: 2.8 m/s
83%
18:00
24°
1012.2 hPa
80%
22.0°
3
Windvlaag: 5.4 m/s
84%
19:00
23°
1012.0 hPa
70%
22.2°
2
Windvlaag: 6.3 m/s
76%
20:00
23°
1011.7 hPa
31%
22.3°
2
Windvlaag: 4.3 m/s
71%
21:00
23°
1011.6 hPa
80%
21.3°
2
Windvlaag: 4.7 m/s
81%
22:00
22°
1011.5 hPa
21%
19.8°
3
Windvlaag: 5.3 m/s
73%
23:00
21°
1010.9 hPa 4.9 mm
21%
17.8°
3
Windvlaag: 5 m/s
96%
 04:56     21:41    Daglengte: 16:45 Dinsdag 27 Jul
00:00
21°
1010.8 hPa 4.9 mm
21%
18.2°
3
Windvlaag: 1.7 m/s
94%
01:00
20°
1010.5 hPa 4.9 mm
21%
18.3°
3
Windvlaag: -1.4 m/s
90%
02:00
20°
1010.4 hPa
21%
19.0°
3
Windvlaag: -1.7 m/s
94%
03:00
20°
1010.2 hPa
21%
19.5°
2
Windvlaag: -1.8 m/s
88%
04:00
19°
1010.4 hPa 5.1 mm
100%
19.3°
2
Windvlaag: -1 m/s
99%
05:00
19°
1009.9 hPa
100%
19.0°
2
Windvlaag: 0.9 m/s
98%
06:00
19°
1009.6 hPa
31%
18.7°
2
Windvlaag: 1 m/s
97%
07:00
20°
1009.2 hPa
83%
19.0°
2
Windvlaag: -0.4 m/s
89%
08:00
20°
1009.0 hPa
91%
19.4°
3
Windvlaag: -0.3 m/s
98%
09:00
20°
1008.5 hPa 5.6 mm
99%
19.6°
2
Windvlaag: 4.4 m/s
100% warningclass
10:00
21°
1007.8 hPa
96%
18.6°
2
Windvlaag: 4.3 m/s
100%
11:00
21°
1007.3 hPa
99%
19.2°
3
Windvlaag: 4.1 m/s
100%
12:00
21°
1006.9 hPa 6.5 mm
100%
17.6°
4
Windvlaag: 5.1 m/s
100% warningclass
13:00
21°
1006.9 hPa 7.5 mm
100%
16.9°
4
Windvlaag: 4.1 m/s
100% warningclass
14:00
22°
1006.7 hPa 7.0 mm
100%
16.6°
4
Windvlaag: 5 m/s
99% warningclass
15:00
22°
1006.6 hPa 6.9 mm
100%
16.6°
4
Windvlaag: 8.9 m/s
62%
16:00
22°
1006.8 hPa 6.7 mm
100%
15.7°
4
Windvlaag: 7.1 m/s
99%
17:00
22°
1006.7 hPa 6.7 mm
100%
15.2°
4
Windvlaag: 8.2 m/s
92%
18:00
22°
1006.7 hPa 6.6 mm
100%
15.5°
4
Windvlaag: 6.8 m/s
47%
19:00
22°
1006.6 hPa
42%
16.2°
4
Windvlaag: 6.3 m/s
58%
20:00
21°
1006.8 hPa
25%
16.9°
4
Windvlaag: 5.7 m/s
18%
21:00
20°
1007.3 hPa
21%
17.3°
3
Windvlaag: 5.6 m/s
66%
22:00
18°
1007.7 hPa
24%
17.2°
3
Windvlaag: 6.4 m/s
55%
23:00
18°
1007.9 hPa
22%
16.9°
3
Windvlaag: 6.3 m/s
62%
 04:58     21:39    Daglengte: 16:41 Woensdag 28 Jul
00:00
17°
1008.1 hPa
31%
16.9°
3
Windvlaag: 6.7 m/s
56%
01:00
17°
1008.2 hPa
94%
16.7°
3
Windvlaag: 6.9 m/s
68%
02:00
16°
1008.4 hPa
36%
16.3°
3
Windvlaag: 5.7 m/s
70%
03:00
13°
1006.2 hPa 19.5 mm
100%
13.1°
2
Windvlaag: 2 m/s
92%
04:00
13°
1006.2 hPa 19.5 mm
100%
13.4°
2
Windvlaag: 1.5 m/s
91%
05:00
14°
1006.1 hPa 19.5 mm
100%
13.6°
1
Windvlaag: 1 m/s
94%
Temp/Neerslag /Baro Onweer/Dauwpunt
    Temp Baro Neerslag Dauwpunt Wind Bewolking  
 04:52     21:45    Daglengte: 16:53 Vandaag
08:00
20°
1015.8 hPa   15.6°
2
1%
11:00
24°
1015.9 hPa   10.3°
3
43%
14:00
27°
Voelt als: 26.6°
1015.2 hPa   9.9°
4
48%
17:00
27°
Voelt als: 26.8°
1014.6 hPa   10.0°
3
56%
20:00
25°
1014.3 hPa   11.6°
2
79%
23:00
21°
1015.1 hPa   15.0°
2
14%
 04:54     21:43    Daglengte: 16:49 Morgen
02:00
18°
1015.3 hPa   14.7°
2
31%
05:00
16°
1015.3 hPa   15.3°
2
44%
08:00
19°
1015.0 hPa   15.6°
3
42%
11:00
23°
1014.7 hPa   16.4°
4
57%
14:00
28°
1013.2 hPa   17.2°
4
57%
17:00
25°
1012.4 hPa 3.4 mm 19.0°
3
83%
20:00
23°
1011.7 hPa   22.3°
2
71%
23:00
21°
1010.9 hPa 4.9 mm 17.8°
3
96%
 04:56     21:41    Daglengte: 16:45 Dinsdag 27 Jul
02:00
20°
1010.4 hPa 9.9 mm 19.0°
3
94%
05:00
19°
1009.9 hPa 5.1 mm 19.0°
2
98%
08:00
20°
1009.0 hPa   19.4°
3
98%
11:00
21°
1007.3 hPa 5.6 mm 19.2°
3
100% warningclass
14:00
22°
1006.7 hPa 21.0 mm 16.6°
4
99% warningclass
17:00
22°
1006.7 hPa 20.2 mm 15.2°
4
92%
20:00
21°
1006.8 hPa 6.6 mm 16.9°
4
18%
23:00
18°
1007.9 hPa   16.9°
3
62%
 04:58     21:39    Daglengte: 16:41 Woensdag 28 Jul
02:00
16°
1008.4 hPa   16.3°
3
70%
05:00
14°
1006.1 hPa 58.6 mm 13.6°
1
94%
08:00
17°
1005.7 hPa 58.6 mm 15.3°
1
100%
11:00
22°
1006.7 hPa 26.9 mm 13.2°
3
1%
14:00
22°
1006.1 hPa 27.1 mm 14.4°
3
1%
17:00
21°
1005.5 hPa 27.7 mm 16.6°
3
1%
20:00
18°
1005.1 hPa 29.5 mm 16.4°
3
1%
23:00
15°
1005.3 hPa 29.6 mm 14.3°
2
0%
 05:00     21:36    Daglengte: 16:36 Donderdag 29 Jul
02:00
15°
1005.0 hPa 29.6 mm 14.3°
4
0%
05:00
15°
1005.1 hPa 29.7 mm 13.2°
5
1%
08:00
17°
1005.2 hPa 29.7 mm 11.5°
5
1%
11:00
19°
1005.7 hPa 29.7 mm 10.3°
6
0%
14:00
21°
1005.4 hPa 29.7 mm 9.8°
5
0%
17:00
21°
1004.7 hPa 29.7 mm 11.9°
6
0%
20:00
18°
1003.7 hPa 29.8 mm 12.9°
3
0%
23:00
14°
1002.8 hPa 29.8 mm 12.0°
2
0%
 05:02     21:34    Daglengte: 16:32 Vrijdag 30 Jul
02:00
14°
1000.8 hPa 29.9 mm 12.1°
2
1%
05:00
14°
998.4 hPa 32.0 mm 13.3°
4
1%
08:00
14°
998.7 hPa 32.4 mm 11.6°
6
1%
11:00
16°
998.7 hPa 33.6 mm 12.0°
6
0%
14:00
17°
998.4 hPa 35.2 mm 12.1°
7
0%
17:00
17°
998.2 hPa 37.0 mm 11.5°
7
0%
20:00
16°
997.4 hPa 37.6 mm 10.0°
7
0%
23:00
14°
996.9 hPa 37.9 mm 11.0°
6
0%
 05:04     21:32    Daglengte: 16:28 Zaterdag 31 Jul
02:00
14°
996.6 hPa 38.3 mm 10.7°
6
1%
05:00
14°
997.1 hPa 38.5 mm 10.5°
5
1%
08:00
16°
997.7 hPa 38.7 mm 11.2°
5
1%
11:00
17°
999.0 hPa 39.1 mm 12.4°
6
1%
14:00
20°
999.3 hPa 39.3 mm 8.6°
6
1%
17:00
19°
999.4 hPa 39.5 mm 8.6°
5
1%
20:00
15°
999.5 hPa 39.8 mm 12.4°
3
0%
23:00
12°
999.9 hPa 39.9 mm 11.0°
2
1%
 05:06     21:30    Daglengte: 16:24 Zondag 01 Aug
02:00
13°
999.9 hPa 39.9 mm 10.4°
2
1%
05:00
14°
999.8 hPa   8.8°
3
1%
08:00
15°
1000.3 hPa 79.9 mm 8.4°
4
1%
14:00
18°
1001.5 hPa 82.2 mm 10.7°
4
1%
20:00
15°
1004.6 hPa 87.0 mm 11.3°
4
1%
 05:08     21:27    Daglengte: 16:19 Maandag 02 Aug
02:00
13°
1006.4 hPa 88.2 mm 10.4°
2
1%
08:00
13°
1007.3 hPa 88.3 mm 10.2°
2
1%
14:00
18°
1008.6 hPa 89.6 mm 10.1°
2
1%
20:00
16°
1009.5 hPa 92.3 mm 11.8°
2
1%
 05:10     21:25    Daglengte: 16:15 Dinsdag 03 Aug
02:00
11°
1011.2 hPa 93.1 mm 9.5°
2
1%
14:00
22°
1012.8 hPa 139.8 mm 7.3°
2
1%
20:00
17°
1013.2 hPa 93.5 mm 12.3°
1
1%
 05:12     21:23    Daglengte: 16:11 Woensdag 04 Aug
02:00
13°
1005.2 hPa 0.7 mm 10.4°
1
58%
08:00
15°
1005.5 hPa 1.7 mm 11.2°
1
56%
14:00
19°
1005.8 hPa 1.6 mm 11.8°
1
66%
20:00
17°
1006.3 hPa 1.4 mm 12.0°
1
61%
 05:15     21:20    Daglengte: 16:05 Donderdag 05 Aug
02:00
13°
1007.5 hPa 0.7 mm 10.9°
1
52%
08:00
15°
1007.8 hPa 0.4 mm 11.9°
1
48%
14:00
19°
1008.1 hPa 1.2 mm 12.4°
2
52%
20:00
17°
1008.3 hPa 1.1 mm 12.4°
2
47%
 05:17     21:18    Daglengte: 16:01 Vrijdag 06 Aug
02:00
13°
1009.0 hPa 0.2 mm 11.2°
1
48%
08:00
15°
1009.1 hPa 0.6 mm 12.2°
2
59%
14:00
19°
1008.9 hPa   12.6°
3
61%
20:00
17°
1008.7 hPa 0.8 mm 12.6°
2
59%
 05:19     21:16    Daglengte: 15:57 Zaterdag 07 Aug
02:00
14°
1009.3 hPa 0.5 mm 12.0°
2
60%
08:00
15°
1009.0 hPa 0.6 mm 12.6°
1
68%
14:00
19°
1008.7 hPa 1.2 mm 12.8°
2
72%
20:00
17°
1008.3 hPa 1.1 mm 13.1°
1
62%
 05:21     21:13    Daglengte: 15:52 Zondag 08 Aug
02:00
14°
1008.5 hPa 0.1 mm 12.1°
1
69%
08:00
15°
1008.1 hPa 1.2 mm 12.8°
1
73%
14:00
19°
1008.1 hPa 2.2 mm 13.1°
2
73%
20:00
17°
1008.0 hPa 1.9 mm 13.5°
2
67%
 05:23     21:11    Daglengte: 15:48 Maandag 09 Aug
02:00
14°
1008.3 hPa 0.9 mm 12.5°
2
64%
08:00
15°
1008.2 hPa 0.9 mm 12.8°
2
70%
  CAPE Lifted Index Hail Supercell Tornado SRH 3km CL BTM PRES CL TOP PRES Swiss DWD icon SMHI TS
 04:52     21:45    Daglengte: 16:53 Vandaag
06:00 0 J/kg -0.5 K 0 % 0 % 0 % 0 m²/s² 0 0 3.19 2
07:00 0 J/kg 0.0 K 0 % 0 % 0 % 0 m²/s² 0 0 3.87 2
08:00 0 J/kg 0.3 K 0 % 0 % 0 % 0 m²/s² 0 0 4.08 2
09:00 0 J/kg 1.4 K 0 % 0 % 0 % 0 m²/s² 0 0 5.48 0
10:00 0 J/kg 2.4 K 0 % 0 % 0 % 0 m²/s² 0 0 6.6 3
11:00 0 J/kg 3.4 K 0 % 0 % 0 % 0 m²/s² 0 0 7.6 3
12:00 0 J/kg 3.6 K 0 % 0 % 0 % 0 m²/s² 0 0 7.8 3
13:00 0 J/kg 3.0 K 0 % 0 % 0 % 0 m²/s² 0 0 7.11 3
14:00 0 J/kg 2.5 K 0 % 0 % 0 % 0 m²/s² 0 0 6.61 3
15:00 0 J/kg 2.1 K 0 % 0 % 0 % 0 m²/s² 0 0 6.09 3
16:00 0 J/kg 1.5 K 0 % 0 % 0 % 0 m²/s² 0 0 5.61 3
17:00 0 J/kg 1.0 K 0 % 0 % 0 % 0 m²/s² 0 0 5.32 3
18:00 0 J/kg 1.2 K 0 % 0 % 0 % 0 m²/s² 0 0 6 3
19:00 0 J/kg 1.4 K 0 % 0 % 0 % 0 m²/s² 0 0 6.47 3
20:00 0 J/kg 1.5 K 0 % 0 % 0 % 0 m²/s² 0 0 6.69 3
21:00 0 J/kg 1.4 K 0 % 0 % 0 % 0 m²/s² 0 0 6.86 3
22:00 0 J/kg 1.2 K 0 % 0 % 0 % 0 m²/s² 0 0 6.66 3
23:00 0 J/kg 1.7 K 0 % 0 % 0 % 0 m²/s² 0 0 7.31 1
 04:54     21:43    Daglengte: 16:49 Morgen
00:00 0 J/kg 1.1 K 0 % 0 % 0 % 0 m²/s² 0 0 6.56 1
01:00 0 J/kg 0.9 K 0 % 0 % 0 % 0 m²/s² 0 0 6.36 2
02:00 0 J/kg 1.4 K 0 % 0 % 0 % 0 m²/s² 0 0 6.86 3
03:00 0 J/kg 3.1 K 0 % 0 % 0 % 0 m²/s² 0 0 8.29 2
04:00 0 J/kg 3.7 K 0 % 0 % 0 % 0 m²/s² 0 0 8.14 3
05:00 0 J/kg 3.2 K 0 % 0 % 0 % 0 m²/s² 0 0 7.64 3
06:00 0 J/kg 1.1 K 0 % 0 % 0 % 0 m²/s² 0 0 5.42 3
07:00 0 J/kg 0.9 K 0 % 0 % 0 % 0 m²/s² 0 0 4.5 3
08:00 0 J/kg -0.3 K 0 % 0 % 0 % 0 m²/s² 0 0 1.08 2
09:00 0 J/kg -0.5 K 0 % 0 % 0 % 0 m²/s² 0 0 0.91 3
10:00 366 J/kg -1.6 K 0 % 0 % 0 % 0 m²/s² 0 0 0.29 3
11:00 730 J/kg -2.6 K 0 % 0 % 0 % 0 m²/s² 0 0 -0.5 3
12:00 781 J/kg -2.9 K 0 % 0 % 0 % 0 m²/s² 0 0 -2.06 3
13:00 824 J/kg -3.0 K 0 % 0 % 0 % 0 m²/s² 0 0 -1.47 3
14:00 723 J/kg -2.3 K 0 % 0 % 0 % 0 m²/s² 0 0 -0.47 3
15:00 404 J/kg -1.5 K 0 % 0 % 0 % 0 m²/s² 0 0 -0.78 3
16:00 0 J/kg 1.2 K 0 % 0 % 0 % 0 m²/s² 0 0 1.2 3
17:00 0 J/kg -0.7 K 0 % 0 % 0 % 0 m²/s² 0 0 -0.7 80
18:00 39 J/kg -2.1 K 0 % 0 % 0 % 0 m²/s² 0 0 -2.1 80
19:00 143 J/kg -1.3 K 0 % 0 % 0 % 0 m²/s² 0 0 -1.3 3
20:00 357 J/kg -1.1 K 0 % 0 % 0 % 0 m²/s² 0 0 -0.98 3
21:00 435 J/kg -1.9 K 0 % 0 % 0 % 0 m²/s² 0 0 -1.63 3
22:00 163 J/kg -2.4 K 0 % 0 % 0 % 0 m²/s² 0 0 -1.29 3
23:00 53 J/kg -2.9 K 0 % 0 % 0 % 0 m²/s² 0 0 -1.4 3
 04:56     21:41    Daglengte: 16:45 Dinsdag 27 Jul
00:00 153 J/kg -2.9 K 0 % 0 % 0 % 0 m²/s² 0 0 -1.1 3
01:00 158 J/kg -2.5 K 0 % 0 % 0 % 0 m²/s² 0 0 -1.06 3
02:00 260 J/kg -2.5 K 0 % 0 % 0 % 0 m²/s² 0 0 -1.93 3
03:00 354 J/kg -1.9 K 0 % 0 % 0 % 0 m²/s² 0 0 -1.9 3
04:00 381 J/kg -1.6 K 0 % 0 % 0 % 0 m²/s² 0 0 -1.12 3
05:00 453 J/kg -2.3 K 0 % 0 % 0 % 0 m²/s² 0 0 -1.55 3
06:00 465 J/kg -2.3 K 0 % 0 % 0 % 0 m²/s² 0 0 -2.12 3
07:00 518 J/kg -2.6 K 0 % 0 % 0 % 0 m²/s² 0 0 -2.39 3
08:00 683 J/kg -3.1 K 0 % 0 % 0 % 0 m²/s² 0 0 -1.93 61
09:00 810 J/kg -3.4 K 0 % 0 % 0 % 0 m²/s² 0 0 -2.29 61
10:00 1292 J/kg -4.5 K 0 % 0 % 0 % 0 m²/s² 0 0 -3.12 3
11:00 1501 J/kg -5.3 K 0 % 0 % 0 % 0 m²/s² 0 0 -3.14 3
12:00 1853 J/kg -6.1 K 0 % 0 % 0 % 0 m²/s² 0 0 -4 80
13:00 1887 J/kg -6.5 K 0 % 0 % 0 % 0 m²/s² 0 0 -4.61 95
14:00 1740 J/kg -5.8 K 0 % 0 % 0 % 0 m²/s² 0 0 -3.91 95
15:00 1355 J/kg -4.9 K 0 % 0 % 0 % 0 m²/s² 0 0 -1.81 80
16:00 1148 J/kg -3.9 K 0 % 0 % 0 % 0 m²/s² 0 0 -0.81 3
17:00 629 J/kg -2.0 K 0 % 0 % 0 % 0 m²/s² 0 0 1.45 3
18:00 669 J/kg -2.0 K 0 % 0 % 0 % 0 m²/s² 0 0 1.24 2
19:00 649 J/kg -1.6 K 0 % 0 % 0 % 0 m²/s² 0 0 1.82 2
20:00 554 J/kg -1.4 K 0 % 0 % 0 % 0 m²/s² 0 0 1.93 2
21:00 246 J/kg -0.5 K 0 % 0 % 0 % 0 m²/s² 0 0 2.65 2
22:00 0 J/kg 0.8 K 0 % 0 % 0 % 0 m²/s² 0 0 3.8 2
23:00 0 J/kg 0.9 K 0 % 0 % 0 % 0 m²/s² 0 0 3.57 2
 04:58     21:39    Daglengte: 16:41 Woensdag 28 Jul
00:00 0 J/kg 0.1 K 0 % 0 % 0 % 0 m²/s² 0 0 2.53 2
01:00 0 J/kg -0.1 K 0 % 0 % 0 % 0 m²/s² 0 0 2.18 3
02:00 0 J/kg -0.4 K 0 % 0 % 0 % 0 m²/s² 0 0 1.55 3
03:00 0 J/kg -0.1 K 0 % 0 % 0 % 0 m²/s² 0 0 2.06
04:00 0 J/kg 0.5 K 0 % 0 % 0 % 0 m²/s² 0 0 2.78
05:00 0 J/kg 0.8 K 0 % 0 % 0 % 0 m²/s² 0 0 3.32
Temp Baro Wind Neerslag
  EWN Forecast EWN WRFDA DWD ICON FMI HIRLAM MET Norway GFS
 04:52     21:45    Daglengte: 16:53 Vandaag
08:00 19.5° 1015.8 hPa 1.5 m/s 0.0 mm 18.1° 1015.2 hPa 1.5 m/s 0.0 mm 19.8° 1015.9 hPa 1.4 m/s -2.0 mm 18.5° 1016.1 hPa 1.8 m/s 0.0 mm 20.0° 1016.0 hPa 1.8 m/s
11:00 23.7° 1015.9 hPa 3.5 m/s 0.0 mm 22.9° 1015.6 hPa 4.0 m/s 0.0 mm 23.5° 1015.9 hPa 3.2 m/s 0.0 mm 23.5° 1016.3 hPa 3.4 m/s 0.0 mm 24.2° 1015.8 hPa 3.3 m/s
14:00 27.0° 1015.2 hPa 3.7 m/s 0.0 mm 25.1° 1014.9 hPa 4.0 m/s 0.0 mm 26.2° 1015.1 hPa 3.6 m/s 0.0 mm 27.2° 1015.8 hPa 2.8 m/s 0.0 mm 26.6° 1015.2 hPa 3.1 m/s
17:00 27.4° 1014.6 hPa 2.9 m/s 0.0 mm 25.8° 1014.2 hPa 3.8 m/s 0.0 mm 26.1° 1014.6 hPa 2.6 m/s 0.0 mm 27.7° 1014.7 hPa 2.5 m/s 0.0 mm 26.8° 1014.0 hPa 3.1 m/s
20:00 25.3° 1014.3 hPa 2.2 m/s 0.0 mm 23.8° 1013.9 hPa 3.2 m/s 0.0 mm 24.4° 1014.3 hPa 0.8 m/s 0.0 mm 25.6° 1014.3 hPa 2.1 m/s 0.0 mm 22.7° 1013.7 hPa 2.2 m/s
23:00 20.6° 1015.1 hPa 1.6 m/s 0.0 mm 19.9° 1014.4 hPa 3.6 m/s 0.0 mm 20.4° 1015.1 hPa 1.0 m/s 0.0 mm 20.0° 1015.5 hPa 2.5 m/s 0.0 mm 19.2° 1014.7 hPa 2.9 m/s
 04:54     21:43    Daglengte: 16:49 Morgen
02:00 17.7° 1015.3 hPa 2.0 m/s 0.0 mm 15.3° 1015.0 hPa 3.1 m/s 0.0 mm 17.5° 1015.3 hPa 1.3 m/s 0.0 mm 17.2° 1015.7 hPa 1.8 m/s 0.0 mm 17.2° 1014.9 hPa 2.1 m/s
05:00 15.9° 1015.3 hPa 2.0 m/s 0.0 mm 14.2° 1014.0 hPa 3.5 m/s 0.0 mm 15.6° 1015.5 hPa 1.2 m/s 0.0 mm 14.5° 1015.6 hPa 1.7 m/s 0.0 mm 15.2° 1014.9 hPa 2.1 m/s
08:00 18.9° 1015.0 hPa 2.8 m/s 0.0 mm 19.7° 1013.3 hPa 3.5 m/s 0.0 mm 18.5° 1015.6 hPa 2.6 m/s 0.0 mm 17.4° 1014.8 hPa 2.6 m/s 0.0 mm 20.1° 1014.6 hPa 3.4 m/s
11:00 23.0° 1014.7 hPa 3.8 m/s 0.0 mm 25.3° 1012.9 hPa 5.3 m/s 0.4 mm 23.4° 1014.8 hPa 4.0 m/s 0.0 mm 21.7° 1014.9 hPa 3.0 m/s 0.0 mm 23.6° 1014.5 hPa 3.5 m/s
14:00 27.8° 1013.2 hPa 3.9 m/s 0.0 mm 26.7° 1011.3 hPa 6.9 m/s 2.2 mm 27.8° 1012.8 hPa 4.1 m/s 0.0 mm 27.8° 1013.5 hPa 3.4 m/s 0.0 mm 21.9° 1014.2 hPa 1.4 m/s
17:00 25.1° 1012.4 hPa 3.2 m/s 3.4 mm 18.7° 1010.9 hPa 4.3 m/s 12.6 mm 25.8° 1012.2 hPa 2.6 m/s 0.6 mm 27.2° 1012.5 hPa 3.2 m/s 0.0 mm 27.7° 1011.4 hPa 2.5 m/s
20:00 23.5° 1011.7 hPa 2.3 m/s 0.0 mm 20.3° 1008.2 hPa 3.6 m/s 32.3 mm 24.6° 1011.1 hPa 1.6 m/s 0.3 mm 22.3° 1012.1 hPa 2.1 m/s 0.0 mm 19.0° 1013.1 hPa 2.5 m/s
23:00 21.2° 1010.9 hPa 3.1 m/s 4.9 mm 20.7° 1007.1 hPa 4.7 m/s 41.7 mm 22.4° 1011.0 hPa 3.0 m/s 0.1 mm 17.2° 1013.2 hPa 2.2 m/s
 04:56     21:41    Daglengte: 16:45 Dinsdag 27 Jul
02:00 20.1° 1010.4 hPa 3.0 m/s 9.9 mm 19.2° 1007.4 hPa 3.1 m/s 42.5 mm 20.5° 1010.5 hPa 2.4 m/s 0.0 mm 16.5° 1012.5 hPa 1.8 m/s
05:00 19.0° 1009.9 hPa 2.0 m/s 5.1 mm 18.4° 1006.9 hPa 2.0 m/s 45.2 mm 18.8° 1010.0 hPa 1.2 m/s 0.2 mm 15.6° 1011.4 hPa 1.6 m/s
08:00 20.3° 1009.0 hPa 2.6 m/s 0.0 mm 19.4° 1006.7 hPa 3.0 m/s 45.9 mm 20.7° 1009.1 hPa 1.7 m/s 0.1 mm 17.2° 1010.8 hPa 1.3 m/s
11:00 21.5° 1007.3 hPa 2.9 m/s 5.6 mm 21.5° 1006.0 hPa 1.7 m/s 50.5 mm 21.5° 1007.7 hPa 3.1 m/s 0.2 mm 18.6° 1010.2 hPa 1.7 m/s
14:00 21.8° 1006.7 hPa 3.5 m/s 21.0 mm 24.3° 1005.5 hPa 2.7 m/s 54.9 mm 21.1° 1007.0 hPa 3.7 m/s 4.1 mm 24.7° 1008.8 hPa 2.0 m/s
17:00 21.9° 1006.7 hPa 4.1 m/s 20.2 mm 23.6° 1005.9 hPa 5.7 m/s 58.5 mm 21.5° 1007.0 hPa 3.7 m/s 1.0 mm 22.4° 1008.7 hPa 1.0 m/s
20:00 20.6° 1006.8 hPa 3.8 m/s 6.6 mm 20.9° 1006.2 hPa 4.1 m/s 58.6 mm 20.5° 1006.9 hPa 3.7 m/s 0.1 mm 20.2° 1008.4 hPa 1.6 m/s
23:00 17.6° 1007.9 hPa 2.7 m/s 0.0 mm 15.1° 1007.0 hPa 2.1 m/s 58.6 mm 18.2° 1008.1 hPa 2.9 m/s 0.0 mm 15.9° 1008.9 hPa 1.4 m/s
 04:58     21:39    Daglengte: 16:41 Woensdag 28 Jul
02:00 16.5° 1008.4 hPa 2.6 m/s 0.0 mm 13.6° 1006.9 hPa 2.1 m/s 58.6 mm 17.2° 1008.8 hPa 2.7 m/s 0.1 mm 15.1° 1008.3 hPa 1.8 m/s
05:00 13.6° 1006.1 hPa 0.9 m/s 58.6 mm 13.6° 1006.1 hPa 0.9 m/s 58.6 mm 14.8° 1007.6 hPa 1.4 m/s
08:00 16.6° 1005.7 hPa 1.4 m/s 58.6 mm 16.6° 1005.7 hPa 1.4 m/s 58.6 mm 17.8° 1007.6 hPa 2.3 m/s
11:00 22.1° 1006.7 hPa 2.9 m/s 26.9 mm 22.1° 1006.7 hPa 2.9 m/s 26.9 mm
14:00 21.7° 1006.1 hPa 3.4 m/s 27.1 mm 21.7° 1006.1 hPa 3.4 m/s 27.1 mm
17:00 20.9° 1005.5 hPa 3.3 m/s 27.7 mm 20.9° 1005.5 hPa 3.3 m/s 27.7 mm
20:00 17.8° 1005.1 hPa 2.8 m/s 29.5 mm 17.8° 1005.1 hPa 2.8 m/s 29.5 mm
23:00 14.7° 1005.3 hPa 2.2 m/s 29.6 mm 14.7° 1005.3 hPa 2.2 m/s 29.6 mm
 05:00     21:36    Daglengte: 16:36 Donderdag 29 Jul
02:00 14.8° 1005.0 hPa 3.7 m/s 29.6 mm 14.8° 1005.0 hPa 3.7 m/s 29.6 mm
05:00 15.0° 1005.1 hPa 4.8 m/s 29.7 mm 15.0° 1005.1 hPa 4.8 m/s 29.7 mm
08:00 17.2° 1005.2 hPa 5.1 m/s 29.7 mm 17.2° 1005.2 hPa 5.1 m/s 29.7 mm
11:00 19.5° 1005.7 hPa 6.1 m/s 29.7 mm 19.5° 1005.7 hPa 6.1 m/s 29.7 mm
14:00 20.9° 1005.4 hPa 5.5 m/s 29.7 mm 20.9° 1005.4 hPa 5.5 m/s 29.7 mm
17:00 20.9° 1004.7 hPa 5.5 m/s 29.7 mm 20.9° 1004.7 hPa 5.5 m/s 29.7 mm
20:00 18.4° 1003.7 hPa 3.3 m/s 29.8 mm 18.4° 1003.7 hPa 3.3 m/s 29.8 mm
23:00 13.5° 1002.8 hPa 2.1 m/s 29.8 mm 13.5° 1002.8 hPa 2.1 m/s 29.8 mm
 05:02     21:34    Daglengte: 16:32 Vrijdag 30 Jul
02:00 13.8° 1000.8 hPa 2.4 m/s 29.9 mm 13.8° 1000.8 hPa 2.4 m/s 29.9 mm
05:00 14.1° 998.4 hPa 3.7 m/s 32.0 mm 14.1° 998.4 hPa 3.7 m/s 32.0 mm
08:00 14.3° 998.7 hPa 5.8 m/s 32.4 mm 14.3° 998.7 hPa 5.8 m/s 32.4 mm
11:00 16.2° 998.7 hPa 6.3 m/s 33.6 mm 16.2° 998.7 hPa 6.3 m/s 33.6 mm
14:00 17.3° 998.4 hPa 6.6 m/s 35.2 mm 17.3° 998.4 hPa 6.6 m/s 35.2 mm
17:00 16.5° 998.2 hPa 7.4 m/s 37.0 mm 16.5° 998.2 hPa 7.4 m/s 37.0 mm
20:00 15.6° 997.4 hPa 6.9 m/s 37.6 mm 15.6° 997.4 hPa 6.9 m/s 37.6 mm
23:00 13.8° 996.9 hPa 6.4 m/s 37.9 mm 13.8° 996.9 hPa 6.4 m/s 37.9 mm
 05:04     21:32    Daglengte: 16:28 Zaterdag 31 Jul
02:00 14.1° 996.6 hPa 5.8 m/s 38.3 mm 14.1° 996.6 hPa 5.8 m/s 38.3 mm
05:00 14.4° 997.1 hPa 4.9 m/s 38.5 mm 14.4° 997.1 hPa 4.9 m/s 38.5 mm
08:00 16.0° 997.7 hPa 5.3 m/s 38.7 mm 16.0° 997.7 hPa 5.3 m/s 38.7 mm
11:00 17.2° 999.0 hPa 5.8 m/s 39.1 mm 17.2° 999.0 hPa 5.8 m/s 39.1 mm
14:00 19.6° 999.3 hPa 5.9 m/s 39.3 mm 19.6° 999.3 hPa 5.9 m/s 39.3 mm
17:00 18.9° 999.4 hPa 5.1 m/s 39.5 mm 18.9° 999.4 hPa 5.1 m/s 39.5 mm
20:00 15.3° 999.5 hPa 2.9 m/s 39.8 mm 15.3° 999.5 hPa 2.9 m/s 39.8 mm
23:00 11.7° 999.9 hPa 1.8 m/s 39.9 mm 11.7° 999.9 hPa 1.8 m/s 39.9 mm
 05:06     21:30    Daglengte: 16:24 Zondag 01 Aug
02:00 12.5° 999.9 hPa 2.4 m/s 39.9 mm 12.5° 999.9 hPa 2.4 m/s 39.9 mm
05:00 13.5° 999.8 hPa 3.2 m/s 39.9 mm 13.5° 999.8 hPa 3.2 m/s 39.9 mm
08:00 14.8° 1000.3 hPa 3.9 m/s 40.0 mm 14.8° 1000.3 hPa 3.9 m/s 40.0 mm
14:00 17.7° 1001.5 hPa 4.3 m/s 41.8 mm 17.7° 1001.5 hPa 4.3 m/s 41.8 mm
20:00 15.3° 1004.6 hPa 3.8 m/s 44.0 mm 15.3° 1004.6 hPa 3.8 m/s 44.0 mm
 05:08     21:27    Daglengte: 16:19 Maandag 02 Aug
02:00 12.9° 1006.4 hPa 2.4 m/s 44.1 mm 12.9° 1006.4 hPa 2.4 m/s 44.1 mm
08:00 13.4° 1007.3 hPa 1.7 m/s 44.2 mm 13.4° 1007.3 hPa 1.7 m/s 44.2 mm
14:00 17.9° 1008.6 hPa 1.8 m/s 45.2 mm 17.9° 1008.6 hPa 1.8 m/s 45.2 mm
20:00 15.7° 1009.5 hPa 1.8 m/s 46.5 mm 15.7° 1009.5 hPa 1.8 m/s 46.5 mm
 05:10     21:25    Daglengte: 16:15 Dinsdag 03 Aug
02:00 10.6° 1011.2 hPa 1.5 m/s 46.6 mm 10.6° 1011.2 hPa 1.5 m/s 46.6 mm
14:00 21.5° 1012.8 hPa 2.0 m/s 46.6 mm 21.5° 1012.8 hPa 2.0 m/s 46.6 mm
20:00 17.0° 1013.2 hPa 0.9 m/s 46.8 mm 17.0° 1013.2 hPa 0.9 m/s 46.8 mm
 05:12     21:23    Daglengte: 16:11 Woensdag 04 Aug
02:00 12.6° 1005.2 hPa 0.9 m/s 0.7 mm
08:00 14.8° 1005.5 hPa 0.7 m/s 1.7 mm
14:00 18.9° 1005.8 hPa 1.0 m/s 1.6 mm
20:00 16.8° 1006.3 hPa 1.0 m/s 1.4 mm
 05:15     21:20    Daglengte: 16:05 Donderdag 05 Aug
02:00 12.7° 1007.5 hPa 0.9 m/s 0.7 mm
08:00 14.9° 1007.8 hPa 1.3 m/s 0.4 mm
14:00 19.3° 1008.1 hPa 1.7 m/s 1.2 mm
20:00 17.0° 1008.3 hPa 1.6 m/s 1.1 mm
 05:17     21:18    Daglengte: 16:01 Vrijdag 06 Aug
02:00 12.9° 1009.0 hPa 1.4 m/s 0.2 mm
08:00 15.2° 1009.1 hPa 1.7 m/s 0.6 mm
14:00 19.2° 1008.9 hPa 2.5 m/s 0.0 mm
20:00 17.0° 1008.7 hPa 2.1 m/s 0.8 mm
 05:19     21:16    Daglengte: 15:57 Zaterdag 07 Aug
02:00 13.5° 1009.3 hPa 1.7 m/s 0.5 mm
08:00 15.1° 1009.0 hPa 1.5 m/s 0.6 mm
14:00 19.2° 1008.7 hPa 1.9 m/s 1.2 mm
20:00 17.1° 1008.3 hPa 1.3 m/s 1.1 mm
 05:21     21:13    Daglengte: 15:52 Zondag 08 Aug
02:00 13.7° 1008.5 hPa 1.0 m/s 0.1 mm
08:00 15.3° 1008.1 hPa 1.0 m/s 1.2 mm
14:00 19.5° 1008.1 hPa 2.3 m/s 2.2 mm
20:00 17.3° 1008.0 hPa 1.7 m/s 1.9 mm
 05:23     21:11    Daglengte: 15:48 Maandag 09 Aug
02:00 14.1° 1008.3 hPa 1.7 m/s 0.9 mm
08:00 15.3° 1008.2 hPa 1.9 m/s 0.9 mm
FMI Hirlam - 7.5 km EWN WRFDA - 12 km DWD ICON - 7 km GFS - 25 km Basiskaart






























































Updatetijd (Europe/Amsterdam) Resolutie Lengte Stap
FMI Hirlam 02:00, 08:00, 14:00, 20:00 7.5 km 49h 1h
EWN WRFDA 05:30, 11:30, 17:30, 23:30 12 km 73h 1h
DWD ICON 23:45, 05:45, 11:45, 17:45 7 km 75h 1h
GFS 02:15, 08:15, 14:15, 20:15 25 km 237h 3h
30+ mm
25-30 mm
20-25 mm
15-20 mm
10-15 mm
6-10 mm
4-6 mm
2-4 mm
1-2 mm
0.5-1 mm
0.2-0.5 mm
0.1-0.2 mm
30+ mm
25-30 mm
20-25 mm
15-20 mm
10-15 mm
6-10 mm
4-6 mm
2-4 mm
1-2 mm
0.5-1 mm
0.2-0.5 mm
0.1-0.2 mm
Sneeuwval
Natte sneeuw
Hagel
Vorst
30+ mm
25-30 mm
20-25 mm
15-20 mm
10-15 mm
6-10 mm
4-6 mm
2-4 mm
1-2 mm
0.5-1 mm
0.2-0.5 mm
0.1-0.2 mm
Sneeuwval
Natte sneeuw
Hagel
Vorst
Onweer
50 mm
40 mm
30 mm
26 mm
22 mm
18 mm
14 mm
10 mm
9 mm
8 mm
7 mm
6 mm
5 mm
4.5 mm
4 mm
3.5 mm
3 mm
2.5 mm
2 mm
1.5 mm
1 mm
0.8 mm
0.6 mm
0.4 mm
0.2 mm
0.05 mm
35°
30°
25°
20°
15°
10°
-5°
-10°
-15°
-20°
-25°
-30°
-35°
33> m/s
29 m/s
25 m/s
21 m/s
17 m/s
14 m/s
11 m/s
8 m/s
5 m/s
3 m/s
0 m/s
2600 J/kg
2400 J/kg
2200 J/kg
2000 J/kg
1800 J/kg
1600 J/kg
1400 J/kg
1200 J/kg
1000 J/kg
800 J/kg
600 J/kg
400 J/kg
200 J/kg
70 dBZ
65 dBZ
60 dBZ
55 dBZ
50 dBZ
45 dBZ
40 dBZ
35 dBZ
30 dBZ
25 dBZ
20 dBZ
15 dBZ
10 dBZ
5 dBZ
-1 K
-2 K
-3 K
-4 K
-5 K
-6 K
-7 K
-8 K
-9 K
950 m²/s²
900 m²/s²
850 m²/s²
800 m²/s²
750 m²/s²
700 m²/s²
650 m²/s²
600 m²/s²
550 m²/s²
500 m²/s²
450 m²/s²
400 m²/s²
350 m²/s²
300 m²/s²
250 m²/s²
200 m²/s²
150 m²/s²
100 m²/s²
46 m/s
44 m/s
42 m/s
40 m/s
38 m/s
36 m/s
34 m/s
32 m/s
30 m/s
28 m/s
26 m/s
24 m/s
22 m/s
20 m/s
16 m/s
12 m/s
8 m/s
4 m/s
30 m/s
28 m/s
26 m/s
24 m/s
22 m/s
20 m/s
18 m/s
16 m/s
14 m/s
12 m/s
10 m/s
8 m/s
6 m/s
4 m/s
2 m/s
3.0
2.8
2.6
2.4
2.2
2.0
1.8